Location: Kerguer�zec
(48.4509°N, 4.7600°W)
Time: 07:54:13
(UTC+00:00)

Meteor 1-27 - Pass Details

Date: 09 April 2020
Orbit: 837 x 893 km, 81.3° (Epoch: 02 June)

Event Time Altitude Azimuth Distance (km) Brightness Sun altitude
Exits shadow 22:47:34 75° 12° (NNE) 926 4.3 -29.9°
Drops below altitude 10° 22:52:54 10° 12° (NNE) 2,573 7.3 -30.3°
Sets 22:55:22 0° 12° (NNE) 3,519 8.1 -30.5°
